Tracking 20083 objects as of 10-Dec-2019
HD Live streaming from Space Station
objects crossing your sky now

STARLINK 1038

Track STARLINK 1038 now!
10-day predictions
STARLINK 1038 is classified as:


NORAD ID: 44743
Int'l Code: 2019-074AG
Perigee: 456.1 km
Apogee: 457.9 km
Inclination: 53.0 °
Period: 93.6 minutes
Semi major axis: 6828 km
RCS: Unknown
Launch date: November 11, 2019
Source: United States (US)
Launch site: AIR FORCE EASTERN TEST RANGE (AFETR)
aabbcc
Your satellite tracking list
Your tracking list is empty




NASA's NSSDC Master Catalog

Two Line Element Set (TLE):
1 44743U 19074AG  19344.58334491 -.00062517  00000-0 -16125-2 0  9991
2 44743  53.0060  28.7410 0001291  72.1254 118.7618 15.38722032  4553
Source of the keplerian elements: AFSPC